Terug naar catalogus

STARLINK-4474

ActiefCommunicatieVLEO
NORAD 53547·PAYLOAD·🇺🇸 United States

Gelanceerd Aug 19, 2022 vanaf Cape Canaveral Space Force Station

Loading…

Volgende Passages (komende 24 uur)

TLE

VersSource: CelesTrak SupGP

Epoch: Sep 14, 2026, 22:11 UTC

1 53547C 22101W   26257.92479167  .00049844  00000+0  14729-2 0  2577
2 53547  53.1576 279.7454 0001285  89.1237 294.7625 15.34359791    10

Volg STARLINK-4474 in realtime met AllMySat

Download on the App Store